Welcome to the New NWS' Forecast!
Most changes are behind the scenes, but click here for differences you might notice.
Latest weather observations around

Los Angeles, Los Angeles International Airport (KLAX)

Using English Units (Switch to International System of Units)
Date/ Time (PDT) Wind (mph) Vis. (mi) Weather Sky Cond. Temp (°F) Rel. Humidity Wind Chill (°F) Heat Index (°F) Pressure Precip. (in)
Air Dwpt 6 hour Altimeter (inHg) Sea level (inHg) 1 hr 3 hr 6 hr
Max Min
Sep 22 03:53 W 5 9 Mostly Cloudy BKN008 65 62     90%     29.96 29.95      
Sep 22 02:53 W 7 9 Mostly Cloudy BKN009 65 61     87%     29.96 29.95      
Sep 22 01:53 W 7 10 Mostly Cloudy BKN009 66 62     87%     29.97 29.96      
Sep 22 00:53 W 8 10 Mostly Cloudy BKN009 67 63     87%     29.97 29.96      
Sep 21 23:53 WSW 7 10 Mostly Cloudy BKN009 67 63     87%     29.98 29.97      
Sep 21 22:53 WSW 7 10 Mostly Clear FEW009 67 62     84%     29.98 29.97      
Sep 21 21:53 W 11 10 Mostly Clear FEW009 67 62     84%     29.97 29.96      
Sep 21 21:22 W 11 10 Mostly Clear FEW009 67 62     84%     29.97        
Sep 21 20:53 W 13 10 Clear CLR 67 62     84%     29.96 29.95      
Sep 21 19:53 W 13 10 Mostly Clear FEW110 67 62     84%     29.94 29.93      
Sep 21 18:53 W 13 10 Mostly Clear FEW110 68 61     78%     29.93 29.93      
Sep 21 17:53 W 11 10 Partly Cloudy FEW100 FEW170 SCT300 69 61     75%     29.93 29.92      
Sep 21 16:53 W 11 10 Partly Cloudy FEW100 FEW170 SCT300 71 61     70%   71 29.94 29.93      
Sep 21 15:53 W 13 10 Partly Cloudy FEW100 FEW170 SCT270 73 61     66%   73 29.95 29.94      
Sep 21 14:53 W 10 10 Partly Cloudy FEW095 FEW160 SCT270 73 61     66%   73 29.96 29.95      
Sep 21 13:53 W 8 10 Clear CLR 73 62     68%   73 29.98 29.97      
Sep 21 12:53 WSW 10 8 Mostly Clear FEW010 74 62     66%   74 30 29.99      
Sep 21 11:53 WSW 9 7 Mostly Clear FEW012 73 62     68%   73 30.01 30      
Sep 21 10:53 W 8 6 Haze FEW010 FEW021 72 62     71%   72 30.01 30      
Sep 21 09:53 WSW 7 7 Mostly Clear FEW021 70 62     76%     30 29.99      
Sep 21 08:53 SW 6 7 Partly Cloudy FEW010 SCT025 69 61     75%     29.99 29.98      
Sep 21 07:53 SW 5 8 Partly Cloudy FEW010 FEW025 SCT140 67 61     81%     29.99 29.98      
Sep 21 06:53 SW 3 8 Partly Cloudy FEW010 FEW026 SCT160 66 60     81%     29.97 29.96      
Sep 21 05:53 Calm 10 Partly Cloudy FEW010 FEW015 SCT026 65 60     84%     29.95 29.94      
Sep 21 05:26 E 3 10 Partly Cloudy FEW011 FEW015 SCT160 65 59     81%     29.95        
Sep 21 04:53 E 3 10 Mostly Cloudy BKN014 65 60     84%     29.95 29.94      
Sep 21 03:53 Calm 10 Mostly Cloudy BKN014 66 60     81%     29.95 29.94      
Sep 21 02:53 NNE 3 10 Cloudy OVC014 66 60     81%     29.95 29.94      
Sep 21 02:45 ESE 8 10 Cloudy OVC014 67 60     79%     29.95        
Sep 21 01:53 E 6 10 Cloudy OVC015 67 60     79%     29.94 29.93      
Sep 21 00:59 E 5 10 Cloudy OVC015 67 60     79%     29.95        
Sep 21 00:53 SE 3 10 Mostly Cloudy BKN012 67 60     79%     29.95 29.94      
Sep 20 23:53 E 7 10 Mostly Cloudy BKN012 68 60     76%     29.95 29.94      
Sep 20 22:53 SE 6 10 Mostly Cloudy BKN012 68 61     78%     29.94 29.93      
Sep 20 21:53 SSE 8 10 Mostly Cloudy BKN012 69 61     75%     29.93 29.92      
Sep 20 20:53 Calm 10 Cloudy OVC010 69 63     81%     29.91 29.91      
Sep 20 19:53 W 8 10 Mostly Cloudy BKN010 68 62     81%     29.89 29.88      
Sep 20 15:53 W 10 10 Clear CLR 73 62     68%   73 29.84 29.83      
Sep 20 14:53 WSW 13 10 Clear CLR 74 62     66%   74 29.84 29.84      
Sep 20 13:53 WSW 14 10 Clear CLR 74 62     66%   74 29.85 29.84      
Sep 20 12:53 WSW 10 8 Mostly Clear FEW018 FEW040 75 62     64%   75 29.85 29.85      
Sep 20 11:53 W 9 8 Mostly Clear FEW017 FEW039 75 62     64%   75 29.86 29.85      
Sep 20 10:53 ENE 5 8 Partly Cloudy SCT014 75 60     60%   75 29.86 29.86      
Sep 20 09:53 ESE 5 8 Partly Cloudy FEW010 SCT015 71 60     68%   71 29.86 29.85      
Sep 20 08:53 6 7 Partly Cloudy SCT009 SCT012 69 61     75%     29.84 29.84      
Sep 20 08:46 E 5 7 Partly Cloudy SCT009 SCT012 68 61     78%     29.84        
Sep 20 07:53 SSE 5 6 Fog/Mist SCT009 BKN011 65 61     87%     29.84 29.83      
Sep 20 07:29 E 6 5 Fog/Mist SCT012 BKN014 65 61     87%     29.83        
Sep 20 06:53 E 6 6 Fog/Mist FEW010 SCT014 64 60     87%     29.81 29.8      
Sep 20 05:53 E 3 10 Mostly Clear FEW010 FEW017 62 58     86%     29.79 29.78      
Sep 20 04:53 Calm 10 Mostly Clear FEW010 FEW017 63 58     84%     29.78 29.77      
Sep 20 03:53 NNE 3 10 Mostly Clear FEW011 64 58     81%     29.77 29.76      
Sep 20 02:53 Calm 10 Clear   66 59     78%     29.77 29.76      
Sep 20 01:53 Calm 10 Mostly Clear FEW011 65 59     81%     29.77 29.76      
Sep 20 00:53 Calm 10 Clear CLR 65 59     81%     29.76 29.75      
Sep 19 23:53 Calm 10 Clear CLR 67 59     76%     29.76 29.75      
Sep 19 22:53 Calm 10 Clear CLR 67 61     81%     29.75 29.75      
Sep 19 21:53 3 10 Clear CLR 67 61     81%     29.76 29.75      
Sep 19 20:53 SSW 3 10 Clear CLR 67 59     76%     29.75 29.74      
Sep 19 19:53 WSW 6 10 Clear CLR 67 60     79%     29.72 29.72      
Sep 19 18:53 W 13 10 Mostly Clear FEW010 68 62     81%     29.72 29.71      
Sep 19 17:53 W 14 10 Mostly Clear FEW010 69 61     75%     29.71 29.71      
Sep 19 16:53 W 14 10 Mostly Clear FEW010 FEW050 71 61     70%   71 29.72 29.71      
Sep 19 15:53 W 13 10 Mostly Clear FEW050 72 60     66%   72 29.73 29.72      
Sep 19 14:53 W 10 10 Mostly Clear FEW050 72 59     64%   72 29.75 29.75      
Sep 19 13:53 WSW 11 10 Mostly Clear FEW050 73 60     64%   73 29.78 29.77      
Sep 19 12:53 W 11 10 Clear CLR 73 60     64%   73 29.8 29.79      
Sep 19 11:53 W 10 10 Clear CLR 72 60     66%   72 29.82 29.81      
Sep 19 10:53 WSW 8 9 Mostly Clear FEW010 72 60     66%   72 29.82 29.82      
Sep 19 09:53 Calm 8 Mostly Clear FEW010 70 59     68%     29.82 29.82      
Sep 19 08:53 Calm 8 Mostly Clear FEW012 FEW160 67 59     76%     29.83 29.82      
Sep 19 07:53 E 3 9 Partly Cloudy FEW010 SCT014 SCT180 64 59     84%     29.82 29.81      
Sep 19 06:53 Calm 9 Partly Cloudy FEW009 SCT012 SCT180 63 58     84%     29.81 29.8      
Sep 19 05:53 N 5 10 Partly Cloudy FEW009 SCT011 SCT170 63 59     87%     29.8 29.8      
Sep 19 04:53 Calm 9 Mostly Clear FEW009 FEW015 63 59     87%     29.8 29.79      
Sep 19 03:53 Calm 9 Mostly Clear FEW009 62 59     90%     29.81 29.8      
Sep 19 02:53 E 5 9 Mostly Clear FEW009 62 59     90%     29.81 29.8      
Sep 19 01:53 SSE 5 10 Mostly Clear FEW009 64 59     84%     29.82 29.81      
Sep 19 00:53 SE 3 10 Mostly Clear FEW009 65 60     84%     29.82 29.81      
Sep 18 23:53 SSE 3 10 Mostly Clear FEW009 65 60     84%     29.82 29.81      
Sep 18 22:53 SW 6 10 Mostly Clear FEW009 65 60     84%     29.82 29.81      
Sep 18 22:49 SSW 7 10 Mostly Clear FEW009 64 61     88%     29.82        
Sep 18 21:53 WSW 9 10 Clear CLR 65 60     84%     29.82 29.82      
Sep 18 20:53 WSW 10 10 Clear CLR 66 60     81%     29.82 29.81      
Sep 18 19:53 WSW 13 10 Clear CLR 67 59     76%     29.8 29.8      
Sep 18 18:53 WSW 14 10 Clear CLR 68 58     70%     29.8 29.79      
Sep 18 17:53 WSW 13 10 Mostly Clear FEW015 FEW150 70 56     61%     29.8 29.8      
Sep 18 16:53 WSW 14 10 Mostly Clear FEW150 72 58     61%   72 29.81 29.81      
Sep 18 15:53 W 15 10 Mostly Clear FEW150 72 57     59%   72 29.82 29.82      
Sep 18 14:53 W 14 10 Mostly Clear FEW120 73 59     61%   73 29.83 29.83      
Sep 18 13:53 W 14 10 Partly Cloudy FEW140 SCT160 74 61     64%   74 29.85 29.85      
Sep 18 12:53 WSW 13 10 Mostly Clear FEW140 FEW160 76 60     58%   76 29.87 29.86      
Sep 18 11:53 WSW 7 10 Mostly Clear FEW140 FEW160 77 60     56%   77 29.88 29.88      
Sep 18 10:53 5 10 Clear CLR 75 57     54%   75 29.9 29.89      
Sep 18 08:53 ESE 7 10 Mostly Clear FEW010 FEW014 68 58     70%     29.9 29.9      
Sep 18 07:53 E 6 10 Mostly Clear FEW010 65 57     76%     29.9 29.89      
Sep 18 06:53 Calm 10 Partly Cloudy FEW011 SCT160 63 56     78%     29.88 29.88      
Sep 18 05:53 Calm 10 Partly Cloudy FEW010 FEW012 SCT160 62 56     80%     29.87 29.86      
Sep 18 04:53 Calm 10 Mostly Clear FEW010 FEW018 63 57     81%     29.87 29.86      
Sep 18 03:53 E 5 10 Mostly Clear FEW018 62 57     84%     29.87 29.85      
Sep 18 02:53 NNE 3 10 Mostly Clear FEW018 64 59     84%     29.87 29.86      
Sep 18 01:53 E 6 10 Mostly Clear FEW018 64 59     84%     29.88 29.87      
Sep 18 00:53 E 6 10 Mostly Clear FEW018 64 59     84%     29.88 29.87      
Sep 17 23:53 E 6 10 Clear CLR 66 60     81%     29.88 29.87      
Sep 17 22:53 ESE 6 10 Clear CLR 67 61     81%     29.87 29.86      
Sep 17 21:53 3 10 Clear CLR 69 59     70%     29.86 29.85      
Sep 17 20:53 SSW 6 10 Clear CLR 69 60     73%     29.86 29.85      
Sep 17 19:53 SW 8 10 Clear CLR 69 59     70%     29.84 29.84      
Sep 17 18:53 WSW 9 10 Clear CLR 69 59     70%     29.84 29.84      
Sep 17 17:53 WSW 16 10 Clear CLR 71 59     66%   71 29.84 29.84      
Sep 17 16:53 W 16 10 Clear CLR 74 59     60%   74 29.85 29.85      
Sep 17 15:53 W 18 10 Clear CLR 75 57     54%   75 29.86 29.86      
Sep 17 14:53 W 14 10 Clear CLR 76 55     48%   75 29.87 29.87      
Sep 17 13:53 W 15 10 Mostly Clear FEW045 76 58     54%   76 29.88 29.88      
Sep 17 12:53 W 11 10 Mostly Clear FEW025 75 61     62%   75 29.9 29.9      
Sep 17 11:53 WSW 10 10 Mostly Clear FEW018 FEW025 76 60     58%   76 29.91 29.91      
Sep 17 10:53 5 10 Partly Cloudy FEW014 SCT019 78 58     50%   78 29.92 29.91      
Sep 17 09:53 Calm 10 Partly Cloudy FEW008 SCT014 74 55     52%   73 29.92 29.91      
Sep 17 08:53 Calm 10 Mostly Clear FEW007 FEW012 71 54     55%   70 29.91 29.91      
Sep 17 08:09 Calm 10 Mostly Clear FEW005 FEW010 69 55     61%     29.91        
Sep 17 07:53 Calm 10 Mostly Clear FEW010 67 55     66%     29.91 29.9      
Sep 17 06:53 Calm 10 Mostly Clear FEW010 64 57     78%     29.9 29.89      
Sep 17 05:53 E 3 10 Clear CLR 61 56     83%     29.89 29.88      
Sep 17 04:53 Calm 10 Clear CLR 64 57     78%     29.88 29.87      
Sep 17 03:53 Calm 10 Clear CLR 62 56     80%     29.88 29.87      
Sep 17 02:53 Calm 10 Clear CLR 64 57     78%     29.89 29.88      
Sep 17 01:53 Calm 10 Clear CLR 67 59     76%     29.89 29.88      
Sep 17 00:53 Calm 10 Clear CLR 66 57     73%     29.89 29.88      
Sep 16 23:53 SW 5 10 Clear CLR 69 58     68%     29.88 29.87      
Sep 16 22:53 SW 3 10 Clear CLR 68 58     70%     29.88 29.87      
Sep 16 21:53 WSW 7 10 Clear CLR 69 58     68%     29.88 29.87      
Sep 16 20:53 SW 7 10 Clear CLR 69 59     70%     29.88 29.87      
Sep 16 19:53 W 10 10 Clear CLR 69 58     68%     29.86 29.85      
Sep 16 18:53 W 13 10 Clear CLR 71 59     66%   71 29.86 29.86      
Sep 16 17:53 W 15 10 Clear CLR 72 60     66%   72 29.87 29.86      
Sep 16 16:53 WSW 15 10 Clear CLR 74 61     64%   74 29.87 29.86      
Sep 16 15:53 WSW 11 10 Clear CLR 75 61     62%   75 29.88 29.87      
May 15 08:53 SSW 8 8 Mostly Cloudy BKN021 62 52     70%     30.06 30.05      
May 14 11:53 WSW 17 8 Partly Cloudy FEW027 SCT140 SCT180 65 53     65%     30.01 30      
May 14 09:09 6 7 Mostly Cloudy SCT018 BKN140 63 53     70%     29.99        
May 11 17:53 ESE 7 10 Mostly Cloudy BKN025 BKN031 63 52     67%     29.82 29.81      
Jun 12 02:53 E 6 10 Mostly Clear FEW090 FEW220 57 51     81%     29.97 29.96      
Jun 10 23:53 SW 6 10 Clear   63 57     81%     29.87 29.86      
Jun 10 06:53 WSW 6 10 Cloudy BKN020 OVC026 62 58     86%     29.88 29.87      
Jun 10 05:53 WSW 3 10 Mostly Cloudy BKN023 62 57     84%     29.87 29.86      
Jun 09 15:53 WSW 14 10 Partly Cloudy FEW013 SCT100 69 60     73%     29.91 29.9      
Jun 09 12:53 WSW 14 9 Mostly Clear FEW017 FEW120 70 55     59%     29.96 29.95      
Jun 09 00:53 SSW 3 10 Mostly Clear FEW011 61 56     83%     29.94 29.93      
Jun 08 16:53 WSW 21 10 Clear and Windy   67 57     71%     29.95 29.95      
Jun 08 05:53 W 7 4 Clear   61 60     97%     29.99 29.98 0    
Jun 07 15:53 WSW 13 10 Mostly Clear FEW022 68 59     73%     29.94 29.93      
Jun 07 12:53 7 7 Cloudy OVC016 65 59     81%     29.98 29.98      
Jun 07 10:53 WSW 9 6 Haze SCT012 OVC014 63 59     87%     29.97 29.97     0
Jun 07 09:53 WSW 7 5 Fog/Mist BKN013 OVC018 63 59     87%     29.96 29.96